Meteo Giornale » Osservazioni meteo Argentina » Comodoro Rivadavia Aerodrome
ore: 14:00 - Osservazioni Meteo Comodoro Rivadavia Aerodrome
Lat. 45° 47' S Lon. 67° 30' W Alt. 58 metri s.l.m.
14 °C
Sereno
Temp. 24 Ore
7 °C
15 °C
Ovest
44.4 Km/h
Dew point -5 °C
Umidità 26 %
Visibilità 10 Km
Il sole sorge alle ore 08:00
Il sole tramonta alle ore 19:00
| Data e Ora | Cielo e Fenomeni | T °C | DP °C | Um. % | Pres. hPa | Vis. km | Vento km/h | |
|---|---|---|---|---|---|---|---|---|
| Oggi h: 14:00 | Sereno | 14 | -5 | 26 | 1008 | 10 | O 44.4 | |
| Oggi h: 13:00 | Sereno | 13 | -5 | 28 | 1008 | 10 | O 44.4 | |
| Oggi h: 12:00 | Sereno | 11 | -4 | 34 | 1008 | 10 | O 50 | |
| Oggi h: 11:00 | Sereno | 10 | -3 | 39 | 1008 | 10 | O 40.7 | |
| Oggi h: 10:00 | Sereno | 9 | -2 | 45 | 1007 | 10 | O 50 | |
| Oggi h: 09:00 | Sereno | 8 | -2 | 49 | 1006 | 10 | O 46.3 | |
| Oggi h: 08:00 | Sereno | 8 | -2 | 49 | 1005 | 10 | O 48.1 | |
| Oggi h: 07:00 | Sereno | 7 | -2 | 52 | 1004 | 10 | O/NO 38.8 | |
| Oggi h: 06:00 | Sereno | 8 | -2 | 49 | 1004 | 10 | O/NO 37 | |
| Oggi h: 05:35 | Sereno | 8 | -2 | 49 | 1004 | 10 | O/NO 29.6 | |
| Oggi h: 05:00 | Sereno | 8 | -1 | 52 | 1004 | 10 | O/NO 27.8 | |
| Oggi h: 04:00 | Sereno | 8 | -1 | 52 | 1004 | 10 | O/NO 35.2 | |
| Oggi h: 03:13 | Sereno | 9 | -1 | 49 | 1004 | 10 | O/NO 31.5 | |
| Oggi h: 03:00 | Sereno | 9 | 0 | 53 | 1004 | 10 | O/NO 27.8 | |
| Oggi h: 02:00 | Sereno | 9 | 0 | 53 | 1004 | 10 | O/NO 22.2 | |
| Oggi h: 01:00 | Sereno | 10 | 0 | 49 | 1004 | 10 | NO 16.7 | |
| Oggi h: 00:00 | Sereno | 11 | 1 | 50 | 1005 | 10 | NO 18.5 | |
| Ieri h: 23:00 | Sereno | 10 | 0 | 49 | 1005 | 10 | N/NO 11.1 | |
| Ieri h: 22:00 | Sereno | 11 | 0 | 46 | 1006 | 10 | N/NO 13 | |
| Ieri h: 21:00 | Sereno | 9 | -1 | 49 | 1006 | 10 | O/NO 7.4 | |
| Ieri h: 20:00 | Sereno | 11 | -2 | 40 | 1006 | 10 | N 9.3 | |
| Ieri h: 19:00 | Sereno | 12 | -2 | 37 | 1006 | 10 | N 13 | |
| Ieri h: 18:00 | Sereno | 14 | -2 | 32 | 1006 | 10 | NO 13 | |
| Ieri h: 17:00 | Sereno | 14 | -3 | 30 | 1007 | 10 | O/NO 18.5 | |
| Ieri h: 16:00 | Sereno | 15 | -4 | 26 | 1007 | 10 | O/NO 25.9 | |



